Weather History for KGTF - March, 2013

Change the Weather History Date:

Tuesday, March 19, 2013

  Actual Average Record
Temperature  
Mean Temperature 29 °F 35 °F  
Max Temperature 45 °F 47 °F 71 °F (1928)
Min Temperature 13 °F 24 °F -10 °F (1906)
Degree Days  
Heating Degree Days 36 30  
Month to date heating degree days 560 619  
Since 1 July heating degree days 5373 6124  
Cooling Degree Days 0 0  
Month to date cooling degree days 0 0  
Year to date cooling degree days 0 0  
Moisture  
Dew Point 12 °F    
Average Humidity 56    
Maximum Humidity 92    
Minimum Humidity 19    
Precipitation  
Precipitation 0.01 in 0.03 in 0.86 in (1987)
Month to date precipitation 0.12 0.49  
Year to date precipitation 1.16 1.47  
Snow  
Snow 0.10 in 0.40 in 11.50 in (1987)
Month to date snowfall 2.1 7.2  
Since 1 July snowfall 57.9 47.2  
Snow Depth T in    
Sea Level Pressure  
Sea Level Pressure 30.22 in    
Wind  
Wind Speed 7 mph (SW)    
Max Wind Speed 17 mph    
Max Gust Speed 21 mph    
Visibility 8 miles    
Events Snow    
T = Trace of Precipitation, MM = Missing Value Source: NWS Daily Summary

Daily Weather History Graph

Daily Weather History Graph

Search for Another Location

Airport or City:

Trip Planner

Search our weather history database for the weather conditions in past years. The results will help you decide how hot, cold, wet, or windy it might be!

Date:

Astronomy

Mar. 19, 2013 Rise Set
Actual Time 7:29 AM MDT 7:37 PM MDT
Civil Twilight 6:59 AM MDT 8:07 PM MDT
Nautical Twilight 6:23 AM MDT 8:44 PM MDT
Astronomical Twilight 5:46 AM MDT 9:21 PM MDT
Moon 12:00 PM MDT (3/19) 2:49 AM MDT (3/19)
Length of Visible Light 13h 08m
Length of Day
12h 07m
Waxing Crescent, 50% of the Moon is Illuminated
Mar 19
Waxing Crescent
Mar 27
Full
Apr 2
Last Quarter
Apr 10
New
Apr 18
First Quarter

Hourly Weather History & Observations

Time (MDT) Temp. Windchill Dew Point Humidity Pressure Visibility Wind Dir Wind Speed Gust Speed Precip Events Conditions
12:53 AM 24.1 °F 13.7 °F 16.0 °F 71% 30.10 in 10.0 mi ENE 10.4 mph - N/A   Mostly Cloudy
1:53 AM 21.0 °F 9.3 °F 14.0 °F 74% 30.14 in 10.0 mi NNE 11.5 mph - N/A   Scattered Clouds
2:53 AM 21.0 °F 13.4 °F 14.0 °F 74% 30.19 in 10.0 mi North 5.8 mph - N/A   Overcast
3:39 AM 21.2 °F 13.6 °F 15.8 °F 80% 30.07 in 2.5 mi NNE 5.8 mph - 0.00 in Snow Light Snow
3:47 AM 21.2 °F 13.6 °F 15.8 °F 80% 30.08 in 1.2 mi NNW 5.8 mph - 0.01 in Snow Light Snow
3:53 AM 21.0 °F 14.6 °F 16.0 °F 81% 30.22 in 1.2 mi North 4.6 mph - 0.01 in Snow Light Snow
4:03 AM 19.4 °F 14.3 °F 15.8 °F 86% 30.09 in 1.8 mi North 3.5 mph - 0.00 in Snow Light Snow
4:11 AM 19.4 °F - 15.8 °F 86% 30.09 in 2.5 mi Calm Calm - 0.00 in Snow Light Snow
4:19 AM 19.4 °F 14.3 °F 15.8 °F 86% 30.10 in 3.0 mi NW 3.5 mph - 0.00 in Snow Light Snow
4:28 AM 19.4 °F 14.3 °F 15.8 °F 86% 30.10 in 3.0 mi NW 3.5 mph - 0.00 in Snow Light Snow
4:53 AM 19.0 °F 12.3 °F 15.1 °F 85% 30.25 in 5.0 mi WNW 4.6 mph - 0.00 in   Overcast
5:12 AM 19.4 °F - 15.8 °F 86% 30.11 in 4.0 mi Calm Calm - 0.00 in Snow Light Snow
5:53 AM 17.1 °F - 14.0 °F 88% 30.27 in 10.0 mi Calm Calm - 0.00 in   Overcast
6:22 AM 17.6 °F 10.7 °F 14.0 °F 86% 30.14 in 10.0 mi SW 4.6 mph - N/A   Overcast
6:53 AM 19.0 °F 13.9 °F 15.1 °F 85% 30.29 in 10.0 mi SW 3.5 mph - N/A   Overcast
7:10 AM 15.8 °F 10.2 °F 12.2 °F 86% 30.15 in 10.0 mi SW 3.5 mph - N/A   Mostly Cloudy
7:53 AM 12.9 °F 5.2 °F 10.0 °F 88% 30.34 in 7.0 mi SSW 4.6 mph - N/A   Clear
8:53 AM 21.0 °F 14.6 °F 17.1 °F 85% 30.35 in 10.0 mi SSW 4.6 mph - N/A   Clear
9:53 AM 23.0 °F 15.8 °F 17.1 °F 78% 30.37 in 10.0 mi South 5.8 mph - N/A   Clear
10:53 AM 28.9 °F 21.1 °F 19.9 °F 69% 30.34 in 10.0 mi South 8.1 mph - N/A   Clear
11:53 AM 35.1 °F 25.9 °F 17.1 °F 48% 30.34 in 10.0 mi WSW 13.8 mph 19.6 mph N/A   Clear
12:53 PM 37.9 °F - 7.0 °F 28% 30.33 in 10.0 mi Calm Calm - N/A   Clear
1:53 PM 39.0 °F 34.8 °F 1.9 °F 21% 30.32 in 10.0 mi Variable 5.8 mph 16.1 mph N/A   Clear
2:53 PM 41.0 °F 35.8 °F 3.9 °F 21% 30.31 in 10.0 mi WNW 8.1 mph - N/A   Clear
3:53 PM 43.0 °F - 3.9 °F 20% 30.29 in 10.0 mi Calm Calm - N/A   Clear
4:53 PM 43.0 °F 37.7 °F 3.0 °F 19% 30.29 in 10.0 mi South 9.2 mph - N/A   Clear
5:53 PM 43.0 °F 41.3 °F 3.9 °F 20% 30.28 in 10.0 mi SSW 3.5 mph - N/A   Clear
6:53 PM 39.9 °F 36.7 °F 6.1 °F 25% 30.26 in 10.0 mi East 4.6 mph - N/A   Clear
7:53 PM 35.1 °F 27.9 °F 6.1 °F 30% 30.27 in 10.0 mi ESE 9.2 mph - N/A   Clear
8:53 PM 30.0 °F 23.2 °F 6.1 °F 36% 30.25 in 10.0 mi East 6.9 mph - N/A   Clear
9:53 PM 32.0 °F 24.8 °F 8.1 °F 37% 30.21 in 10.0 mi East 8.1 mph - N/A   Clear
10:53 PM 30.9 °F 23.5 °F 9.0 °F 40% 30.17 in 10.0 mi SE 8.1 mph - N/A   Clear
11:53 PM 34.0 °F 24.6 °F 9.0 °F 35% 30.11 in 10.0 mi SSE 13.8 mph - N/A   Scattered Clouds